Time,TemperatureF,DewpointF,PressureIn,WindDirection,WindDirectionDegrees,WindSpeedMPH,WindSpeedGustMPH,Humidity,HourlyPrecipIn,Conditions,Clouds,dailyrainin,SoftwareType,DateUTC
2013-04-22 00:00:00,32.4,6.4,26.95,SE,134,0.0,0.0,33,0.00,CLR,,0.00,WeatherDisplay:10.37,2013-04-22 04:00:00,
2013-04-22 00:01:00,32.4,6.4,26.95,SE,134,0.0,0.0,33,0.00,CLR,,0.00,WeatherDisplay:10.37,2013-04-22 04:01:00,
2013-04-22 00:02:00,32.4,6.4,26.95,SE,134,0.0,0.0,33,0.00,CLR,,0.00,WeatherDisplay:10.37,2013-04-22 04:02:00,
2013-04-22 00:07:00,32.2,6.3,26.95,SE,134,0.0,0.0,33,0.00,CLR,,0.00,WeatherDisplay:10.37,2013-04-22 04:07:00,
2013-04-22 00:12:00,32.2,6.3,26.95,SE,134,0.0,0.0,33,0.00,CLR,,0.00,WeatherDisplay:10.37,2013-04-22 04:12:00,
2013-04-22 00:17:00,32.0,7.4,26.95,SE,134,0.0,0.0,35,0.00,CLR,,0.00,WeatherDisplay:10.37,2013-04-22 04:17:00,
2013-04-22 00:22:00,32.2,6.3,26.95,SE,134,0.0,0.0,33,0.00,CLR,,0.00,WeatherDisplay:10.37,2013-04-22 04:22:00,
2013-04-22 00:27:00,31.6,5.8,26.95,SE,134,0.0,0.0,33,0.00,CLR,,0.00,WeatherDisplay:10.37,2013-04-22 04:27:00,
2013-04-22 00:32:00,31.3,5.5,26.95,SE,134,0.0,0.0,33,0.00,CLR,,0.00,WeatherDisplay:10.37,2013-04-22 04:32:00,
2013-04-22 00:37:00,31.1,5.3,26.95,SE,134,0.0,0.0,33,0.00,CLR,,0.00,WeatherDisplay:10.37,2013-04-22 04:37:00,
2013-04-22 00:42:00,31.1,5.3,26.95,SE,134,0.0,0.0,33,0.00,CLR,,0.00,WeatherDisplay:10.37,2013-04-22 04:42:00,
2013-04-22 00:47:00,31.1,5.3,26.95,SE,134,0.0,0.0,33,0.00,CLR,,0.00,WeatherDisplay:10.37,2013-04-22 04:47:00,
2013-04-22 00:52:00,30.9,6.4,26.95,SE,134,0.0,0.0,35,0.00,CLR,,0.00,WeatherDisplay:10.37,2013-04-22 04:52:00,
2013-04-22 00:57:00,30.9,6.4,26.95,SE,134,0.0,0.0,35,0.00,CLR,,0.00,WeatherDisplay:10.37,2013-04-22 04:57:00,
2013-04-22 01:02:00,30.9,6.4,26.95,SE,134,0.0,0.0,35,0.00,CLR,,0.00,WeatherDisplay:10.37,2013-04-22 05:02:00,
2013-04-22 01:07:00,30.9,6.4,26.95,SE,134,0.0,0.0,35,0.00,CLR,,0.00,WeatherDisplay:10.37,2013-04-22 05:07:00,
2013-04-22 01:12:00,30.7,6.3,26.95,SE,134,0.0,0.0,35,0.00,CLR,,0.00,WeatherDisplay:10.37,2013-04-22 05:12:00,
2013-04-22 01:17:00,30.7,6.3,26.95,SE,134,0.0,0.0,35,0.00,CLR,,0.00,WeatherDisplay:10.37,2013-04-22 05:17:00,
2013-04-22 01:22:00,30.6,7.9,26.95,SE,134,0.0,0.0,38,0.00,CLR,,0.00,WeatherDisplay:10.37,2013-04-22 05:22:00,
2013-04-22 01:27:00,30.6,7.9,26.95,SE,134,0.0,0.0,38,0.00,CLR,,0.00,WeatherDisplay:10.37,2013-04-22 05:27:00,
2013-04-22 01:32:00,30.6,7.9,26.95,SE,134,0.0,0.0,38,0.00,CLR,,0.00,WeatherDisplay:10.37,2013-04-22 05:32:00,
2013-04-22 01:37:00,30.4,7.8,26.95,SE,134,0.0,0.0,38,0.00,CLR,,0.00,WeatherDisplay:10.37,2013-04-22 05:37:00,
2013-04-22 01:42:00,30.4,7.8,26.95,SE,134,0.0,0.0,38,0.00,CLR,,0.00,WeatherDisplay:10.37,2013-04-22 05:42:00,
2013-04-22 01:47:00,30.4,7.8,26.95,SE,134,0.0,0.0,38,0.00,CLR,,0.00,WeatherDisplay:10.37,2013-04-22 05:47:00,
2013-04-22 01:52:00,30.4,7.8,26.95,SE,134,0.0,0.0,38,0.00,CLR,,0.00,WeatherDisplay:10.37,2013-04-22 05:52:00,
2013-04-22 01:57:00,30.4,7.8,26.95,SE,134,0.0,0.0,38,0.00,CLR,,0.00,WeatherDisplay:10.37,2013-04-22 05:57:00,
2013-04-22 02:02:00,30.6,7.9,26.95,SE,134,0.0,0.0,38,0.00,CLR,,0.00,WeatherDisplay:10.37,2013-04-22 06:02:00,
2013-04-22 02:07:00,30.6,7.9,26.95,SE,134,0.0,0.0,38,0.00,CLR,,0.00,WeatherDisplay:10.37,2013-04-22 06:07:00,
2013-04-22 02:12:00,30.6,7.9,26.95,SE,134,0.0,0.0,38,0.00,CLR,,0.00,WeatherDisplay:10.37,2013-04-22 06:12:00,
2013-04-22 02:17:00,30.6,9.1,26.95,SE,134,0.0,0.0,40,0.00,CLR,,0.00,WeatherDisplay:10.37,2013-04-22 06:17:00,
2013-04-22 02:22:00,30.6,9.1,26.95,SE,134,0.0,0.0,40,0.00,CLR,,0.00,WeatherDisplay:10.37,2013-04-22 06:22:00,
2013-04-22 02:27:00,30.6,9.1,26.95,SE,134,0.0,0.0,40,0.00,CLR,,0.00,WeatherDisplay:10.37,2013-04-22 06:27:00,
2013-04-22 02:32:00,30.6,9.1,26.95,SE,134,0.0,0.0,40,0.00,CLR,,0.00,WeatherDisplay:10.37,2013-04-22 06:32:00,
2013-04-22 02:37:00,30.6,9.1,26.95,SE,134,0.0,0.0,40,0.00,CLR,,0.00,WeatherDisplay:10.37,2013-04-22 06:37:00,
2013-04-22 02:42:00,30.6,9.1,26.95,SE,134,0.0,0.0,40,0.00,CLR,,0.00,WeatherDisplay:10.37,2013-04-22 06:42:00,
2013-04-22 02:47:00,30.6,9.6,26.95,SE,134,0.0,0.0,41,0.00,CLR,,0.00,WeatherDisplay:10.37,2013-04-22 06:47:00,
2013-04-22 02:52:00,30.7,9.8,26.95,SE,134,0.0,0.0,41,0.00,CLR,,0.00,WeatherDisplay:10.37,2013-04-22 06:52:00,
2013-04-22 02:57:00,30.9,9.9,26.95,SE,134,0.0,0.0,41,0.00,CLR,,0.00,WeatherDisplay:10.37,2013-04-22 06:57:00,
2013-04-22 03:02:00,31.1,10.6,26.95,SE,134,0.0,0.0,42,0.00,CLR,,0.00,WeatherDisplay:10.37,2013-04-22 07:02:00,
2013-04-22 03:07:00,31.1,11.2,26.95,SE,134,0.0,0.0,43,0.00,CLR,,0.00,WeatherDisplay:10.37,2013-04-22 07:07:00,
2013-04-22 03:12:00,31.1,11.7,26.95,SE,134,0.0,0.0,44,0.00,CLR,,0.00,WeatherDisplay:10.37,2013-04-22 07:12:00,
2013-04-22 03:17:00,31.1,11.7,26.95,SE,134,0.0,0.0,44,0.00,CLR,,0.00,WeatherDisplay:10.37,2013-04-22 07:17:00,
2013-04-22 03:22:00,30.9,11.5,26.95,SE,134,0.0,0.0,44,0.00,CLR,,0.00,WeatherDisplay:10.37,2013-04-22 07:22:00,
2013-04-22 03:27:00,30.9,12.5,26.95,SE,134,0.0,0.0,46,0.00,CLR,,0.00,WeatherDisplay:10.37,2013-04-22 07:27:00,
2013-04-22 03:32:00,30.9,12.0,26.95,SE,134,0.0,0.0,45,0.00,CLR,,0.00,WeatherDisplay:10.37,2013-04-22 07:32:00,
2013-04-22 03:38:00,30.9,12.5,26.95,SE,134,0.0,0.0,46,0.00,CLR,,0.00,WeatherDisplay:10.37,2013-04-22 07:38:00,
2013-04-22 03:43:00,30.6,12.7,26.95,SE,134,0.0,0.0,47,0.00,CLR,,0.00,WeatherDisplay:10.37,2013-04-22 07:43:00,
2013-04-22 03:48:00,30.4,12.0,26.95,SE,134,0.0,0.0,46,0.00,CLR,,0.00,WeatherDisplay:10.37,2013-04-22 07:48:00,
2013-04-22 03:53:00,30.4,12.5,26.95,SE,134,0.0,0.0,47,0.00,CLR,,0.00,WeatherDisplay:10.37,2013-04-22 07:53:00,
2013-04-22 03:58:00,30.7,14.3,26.95,SE,134,0.0,0.0,50,0.00,CLR,,0.00,WeatherDisplay:10.37,2013-04-22 07:58:00,
2013-04-22 04:03:00,30.6,14.1,26.95,SE,134,0.0,0.0,50,0.00,CLR,,0.00,WeatherDisplay:10.37,2013-04-22 08:03:00,
2013-04-22 04:08:00,30.2,13.8,26.95,SE,134,0.0,0.0,50,0.00,CLR,,0.00,WeatherDisplay:10.37,2013-04-22 08:08:00,
2013-04-22 04:13:00,30.0,14.1,26.95,SE,134,0.0,0.0,51,0.00,CLR,,0.00,WeatherDisplay:10.37,2013-04-22 08:13:00,
2013-04-22 04:18:00,30.2,14.2,26.95,SE,134,0.0,0.0,51,0.00,CLR,,0.00,WeatherDisplay:10.37,2013-04-22 08:18:00,
2013-04-22 04:23:00,30.4,14.4,26.95,SE,134,0.0,0.0,51,0.00,CLR,,0.00,WeatherDisplay:10.37,2013-04-22 08:23:00,
2013-04-22 04:28:00,30.7,14.7,26.95,SE,134,0.0,0.0,51,0.00,CLR,,0.00,WeatherDisplay:10.37,2013-04-22 08:28:00,
2013-04-22 04:33:00,30.6,14.6,26.95,SE,134,0.0,0.0,51,0.00,CLR,,0.00,WeatherDisplay:10.37,2013-04-22 08:33:00,
2013-04-22 04:38:00,30.7,15.2,26.95,SE,134,0.0,0.0,52,0.00,CLR,,0.00,WeatherDisplay:10.37,2013-04-22 08:38:00,
2013-04-22 04:43:00,30.7,15.2,26.95,SE,134,0.0,0.0,52,0.00,CLR,,0.00,WeatherDisplay:10.37,2013-04-22 08:43:00,
2013-04-22 04:48:00,30.7,15.2,26.95,SE,134,0.0,0.0,52,0.00,CLR,,0.00,WeatherDisplay:10.37,2013-04-22 08:48:00,
2013-04-22 04:53:00,31.1,15.5,26.95,SE,134,0.0,0.0,52,0.00,CLR,,0.00,WeatherDisplay:10.37,2013-04-22 08:53:00,
2013-04-22 04:58:00,31.3,16.1,26.95,SE,134,0.0,0.0,53,0.00,CLR,,0.00,WeatherDisplay:10.37,2013-04-22 08:58:00,
2013-04-22 05:03:00,31.5,16.3,26.95,SE,134,0.0,0.0,53,0.00,CLR,,0.00,WeatherDisplay:10.37,2013-04-22 09:03:00,
2013-04-22 05:08:00,31.3,16.1,26.95,SE,134,0.0,0.0,53,0.00,CLR,,0.00,WeatherDisplay:10.37,2013-04-22 09:08:00,
2013-04-22 05:13:00,31.1,15.5,26.95,SE,134,0.0,0.0,52,0.00,CLR,,0.00,WeatherDisplay:10.37,2013-04-22 09:13:00,
2013-04-22 05:18:00,30.9,15.3,26.95,SE,134,0.0,0.0,52,0.00,CLR,,0.00,WeatherDisplay:10.37,2013-04-22 09:18:00,
2013-04-22 05:23:00,30.9,14.9,26.95,SE,134,0.0,0.0,51,0.00,CLR,,0.00,WeatherDisplay:10.37,2013-04-22 09:23:00,
2013-04-22 05:28:00,30.7,14.7,26.95,SE,134,0.0,0.0,51,0.00,CLR,,0.00,WeatherDisplay:10.37,2013-04-22 09:28:00,
2013-04-22 05:33:00,30.7,14.3,26.95,SE,134,0.0,0.0,50,0.00,CLR,,0.00,WeatherDisplay:10.37,2013-04-22 09:33:00,
2013-04-22 05:38:00,30.7,13.3,26.95,SE,134,0.0,0.0,48,0.00,CLR,,0.00,WeatherDisplay:10.37,2013-04-22 09:38:00,
2013-04-22 05:43:00,30.4,12.0,26.95,SE,134,0.0,0.0,46,0.00,CLR,,0.00,WeatherDisplay:10.37,2013-04-22 09:43:00,
2013-04-22 05:48:00,30.0,11.7,26.95,SE,134,0.0,0.0,46,0.00,CLR,,0.00,WeatherDisplay:10.37,2013-04-22 09:48:00,
2013-04-22 05:53:00,30.0,12.2,26.95,SE,134,0.0,0.0,47,0.00,CLR,,0.00,WeatherDisplay:10.37,2013-04-22 09:53:00,
2013-04-22 05:58:00,30.2,12.4,26.95,SE,134,0.0,0.0,47,0.00,CLR,,0.00,WeatherDisplay:10.37,2013-04-22 09:58:00,
2013-04-22 06:03:00,30.2,11.4,26.95,SE,134,0.0,0.0,45,0.00,CLR,,0.00,WeatherDisplay:10.37,2013-04-22 10:03:00,
2013-04-22 06:08:00,30.6,10.7,26.95,SE,134,0.0,0.0,43,0.00,CLR,,0.00,WeatherDisplay:10.37,2013-04-22 10:08:00,
2013-04-22 06:13:00,30.7,10.3,26.95,SE,134,0.0,0.0,42,0.00,CLR,,0.00,WeatherDisplay:10.37,2013-04-22 10:13:00,
2013-04-22 06:18:00,30.9,10.5,26.95,SE,134,0.0,0.0,42,0.00,CLR,,0.00,WeatherDisplay:10.37,2013-04-22 10:18:00,
2013-04-22 06:23:00,31.1,10.6,26.95,SE,134,0.0,0.0,42,0.00,CLR,,0.00,WeatherDisplay:10.37,2013-04-22 10:23:00,
2013-04-22 06:28:00,31.6,10.6,26.95,SE,134,0.0,0.0,41,0.00,CLR,,0.00,WeatherDisplay:10.37,2013-04-22 10:28:00,
2013-04-22 06:33:00,31.8,10.8,26.95,SE,134,0.0,0.0,41,0.00,CLR,,0.00,WeatherDisplay:10.37,2013-04-22 10:33:00,
2013-04-22 06:38:00,32.2,10.5,26.95,SE,134,0.0,0.0,40,0.00,CLR,,0.00,WeatherDisplay:10.37,2013-04-22 10:38:00,
2013-04-22 06:43:00,32.5,10.9,26.95,SE,134,0.0,0.0,40,0.00,CLR,,0.00,WeatherDisplay:10.37,2013-04-22 10:43:00,
2013-04-22 06:48:00,32.9,11.2,26.95,SE,134,0.0,0.0,40,0.00,CLR,,0.00,WeatherDisplay:10.37,2013-04-22 10:48:00,
2013-04-22 06:53:00,33.4,11.7,26.95,SE,134,0.0,0.0,40,0.00,CLR,,0.00,WeatherDisplay:10.37,2013-04-22 10:53:00,
2013-04-22 06:58:00,33.8,9.0,26.95,SE,134,0.0,0.0,35,0.00,CLR,,0.00,WeatherDisplay:10.37,2013-04-22 10:58:00,
2013-04-22 07:03:00,34.3,7.5,26.95,SE,134,0.0,0.0,32,0.00,CLR,,0.00,WeatherDisplay:10.37,2013-04-22 11:03:00,
2013-04-22 07:08:00,35.1,8.1,26.95,SE,134,0.0,0.0,32,0.00,CLR,,0.00,WeatherDisplay:10.37,2013-04-22 11:08:00,
2013-04-22 07:13:00,35.4,8.4,26.95,NNW,346,0.0,0.0,32,0.00,CLR,,0.00,WeatherDisplay:10.37,2013-04-22 11:13:00,
2013-04-22 07:18:00,35.8,6.6,26.95,NE,56,2.3,0.0,29,0.00,CLR,,0.00,WeatherDisplay:10.37,2013-04-22 11:18:00,
2013-04-22 07:23:00,36.3,7.0,26.95,NE,46,0.0,0.0,29,0.00,CLR,,0.00,WeatherDisplay:10.37,2013-04-22 11:23:00,
2013-04-22 07:28:00,36.7,7.4,26.95,West,268,2.3,0.0,29,0.00,CLR,,0.00,WeatherDisplay:10.37,2013-04-22 11:28:00,
2013-04-22 07:33:00,36.9,7.5,26.95,West,268,3.5,0.0,29,0.00,CLR,,0.00,WeatherDisplay:10.37,2013-04-22 11:33:00,
2013-04-22 07:38:00,37.4,8.0,26.95,NE,34,3.5,0.0,29,0.00,CLR,,0.00,WeatherDisplay:10.37,2013-04-22 11:38:00,
2013-04-22 07:43:00,37.8,8.3,26.95,SSE,165,0.0,0.0,29,0.00,CLR,,0.00,WeatherDisplay:10.37,2013-04-22 11:43:00,
2013-04-22 07:48:00,37.9,8.5,26.95,NE,52,0.0,0.0,29,0.00,CLR,,0.00,WeatherDisplay:10.37,2013-04-22 11:48:00,
2013-04-22 07:53:00,38.5,8.9,26.95,North,7,0.0,0.0,29,0.00,CLR,,0.00,WeatherDisplay:10.37,2013-04-22 11:53:00,
2013-04-22 07:58:00,38.8,9.2,26.95,North,7,0.0,0.0,29,0.00,CLR,,0.00,WeatherDisplay:10.37,2013-04-22 11:58:00,
2013-04-22 08:03:00,39.2,8.8,26.95,NE,50,2.3,0.0,28,0.00,CLR,,0.00,WeatherDisplay:10.37,2013-04-22 12:03:00,
2013-04-22 08:08:00,40.1,9.6,26.95,NE,50,2.7,0.0,28,0.00,CLR,,0.00,WeatherDisplay:10.37,2013-04-22 12:08:00,
2013-04-22 08:13:00,40.6,10.0,26.95,NE,50,0.0,0.0,28,0.00,CLR,,0.00,WeatherDisplay:10.37,2013-04-22 12:13:00,
2013-04-22 08:18:00,41.5,10.8,26.95,NE,55,0.0,0.0,28,0.00,CLR,,0.00,WeatherDisplay:10.37,2013-04-22 12:18:00,
2013-04-22 08:23:00,42.4,11.6,26.95,East,101,2.3,2.3,28,0.00,CLR,,0.00,WeatherDisplay:10.37,2013-04-22 12:23:00,
2013-04-22 08:28:00,43.3,12.4,26.95,East,96,3.5,0.0,28,0.00,CLR,,0.00,WeatherDisplay:10.37,2013-04-22 12:28:00,
2013-04-22 08:33:00,43.5,12.5,26.95,ESE,108,3.6,3.6,28,0.00,CLR,,0.00,WeatherDisplay:10.37,2013-04-22 12:33:00,
2013-04-22 08:38:00,43.7,12.7,26.95,East,88,4.6,4.6,28,0.00,CLR,,0.00,WeatherDisplay:10.37,2013-04-22 12:38:00,
2013-04-22 08:43:00,44.2,13.1,26.95,ENE,76,3.5,3.5,28,0.00,CLR,,0.00,WeatherDisplay:10.37,2013-04-22 12:43:00,
2013-04-22 08:48:00,46.4,14.2,26.95,ESE,110,2.3,0.0,27,0.00,CLR,,0.00,WeatherDisplay:10.37,2013-04-22 12:48:00,
2013-04-22 08:53:00,46.6,14.3,26.95,SSE,148,3.5,3.5,27,0.00,CLR,,0.00,WeatherDisplay:10.37,2013-04-22 12:53:00,
2013-04-22 08:58:00,46.6,14.3,26.95,ESE,114,4.6,4.6,27,0.00,CLR,,0.00,WeatherDisplay:10.37,2013-04-22 12:58:00,
2013-04-22 09:03:00,46.8,14.5,26.95,East,85,3.5,3.5,27,0.00,CLR,,0.00,WeatherDisplay:10.37,2013-04-22 13:03:00,
2013-04-22 09:08:00,46.9,14.6,26.95,SE,133,5.8,5.8,27,0.00,CLR,,0.00,WeatherDisplay:10.37,2013-04-22 13:08:00,
2013-04-22 09:13:00,47.7,15.3,26.95,East,86,4.0,4.0,27,0.00,CLR,,0.00,WeatherDisplay:10.37,2013-04-22 13:13:00,
2013-04-22 09:18:00,49.3,15.8,26.95,ESE,115,3.5,3.5,26,0.00,CLR,,0.00,WeatherDisplay:10.37,2013-04-22 13:18:00,
2013-04-22 09:23:00,48.9,15.5,26.95,East,79,4.6,4.6,26,0.00,CLR,,0.00,WeatherDisplay:10.37,2013-04-22 13:23:00,
2013-04-22 09:28:00,48.9,15.5,26.95,ENE,69,5.8,5.8,26,0.00,CLR,,0.00,WeatherDisplay:10.37,2013-04-22 13:28:00,
2013-04-22 09:33:00,49.1,15.6,26.95,SE,128,8.1,8.1,26,0.00,CLR,,0.00,WeatherDisplay:10.37,2013-04-22 13:33:00,
2013-04-22 09:38:00,49.5,15.9,26.95,ESE,104,3.5,3.5,26,0.00,CLR,,0.00,WeatherDisplay:10.37,2013-04-22 13:38:00,
2013-04-22 09:43:00,50.9,17.2,26.95,ESE,123,5.8,5.8,26,0.00,CLR,,0.00,WeatherDisplay:10.37,2013-04-22 13:43:00,
2013-04-22 09:48:00,51.8,18.0,26.95,East,88,3.5,3.5,26,0.00,CLR,,0.00,WeatherDisplay:10.37,2013-04-22 13:48:00,
2013-04-22 09:53:00,52.2,20.0,26.95,East,95,5.8,5.8,28,0.00,CLR,,0.00,WeatherDisplay:10.37,2013-04-22 13:53:00,
2013-04-22 09:58:00,53.1,20.8,26.95,East,99,4.9,4.9,28,0.00,CLR,,0.00,WeatherDisplay:10.37,2013-04-22 13:58:00,
2013-04-22 10:03:00,52.0,19.8,26.95,ENE,66,8.1,8.1,28,0.00,CLR,,0.00,WeatherDisplay:10.37,2013-04-22 14:03:00,
2013-04-22 10:08:00,51.4,17.6,26.95,East,87,5.8,5.8,26,0.00,CLR,,0.00,WeatherDisplay:10.37,2013-04-22 14:08:00,
2013-04-22 10:13:00,52.2,20.0,26.95,ENE,58,8.1,8.1,28,0.00,CLR,,0.00,WeatherDisplay:10.37,2013-04-22 14:13:00,
2013-04-22 10:18:00,51.6,20.4,26.95,East,100,5.8,5.8,29,0.00,CLR,,0.00,WeatherDisplay:10.37,2013-04-22 14:18:00,
2013-04-22 10:23:00,52.2,20.0,26.95,ESE,106,8.1,8.1,28,0.00,CLR,,0.00,WeatherDisplay:10.37,2013-04-22 14:23:00,
2013-04-22 10:28:00,51.8,19.7,26.95,ESE,110,5.8,5.8,28,0.00,CLR,,0.00,WeatherDisplay:10.37,2013-04-22 14:28:00,
2013-04-22 10:33:00,51.8,19.7,26.95,ENE,74,5.8,5.8,28,0.00,CLR,,0.00,WeatherDisplay:10.37,2013-04-22 14:33:00,
2013-04-22 10:38:00,51.8,19.7,26.95,ESE,110,3.5,3.5,28,0.00,CLR,,0.00,WeatherDisplay:10.37,2013-04-22 14:38:00,
2013-04-22 10:43:00,52.0,19.8,26.95,ESE,110,5.8,5.8,28,0.00,CLR,,0.00,WeatherDisplay:10.37,2013-04-22 14:43:00,
2013-04-22 10:48:00,52.5,20.3,26.95,ESE,104,8.1,8.1,28,0.00,CLR,,0.00,WeatherDisplay:10.37,2013-04-22 14:48:00,
2013-04-22 10:53:00,52.7,20.5,26.95,SE,133,8.1,8.1,28,0.00,CLR,,0.00,WeatherDisplay:10.37,2013-04-22 14:53:00,
2013-04-22 10:58:00,53.4,21.1,26.95,NE,52,8.1,8.1,28,0.00,CLR,,0.00,WeatherDisplay:10.37,2013-04-22 14:58:00,
2013-04-22 11:03:00,54.1,21.7,26.95,South,179,5.8,5.8,28,0.00,CLR,,0.00,WeatherDisplay:10.37,2013-04-22 15:03:00,
2013-04-22 11:08:00,54.7,22.2,26.95,SSW,196,8.1,8.1,28,0.00,CLR,,0.00,WeatherDisplay:10.37,2013-04-22 15:08:00,
2013-04-22 11:13:00,54.5,22.0,26.95,ESE,120,8.1,8.1,28,0.00,CLR,,0.00,WeatherDisplay:10.37,2013-04-22 15:13:00,
2013-04-22 11:18:00,55.2,22.6,26.95,ESE,102,8.1,8.1,28,0.00,CLR,,0.00,WeatherDisplay:10.37,2013-04-22 15:18:00,
2013-04-22 11:23:00,56.7,23.0,26.95,ESE,109,3.5,3.5,27,0.00,CLR,,0.00,WeatherDisplay:10.37,2013-04-22 15:23:00,
2013-04-22 11:28:00,56.5,22.9,26.95,ENE,76,5.8,5.8,27,0.00,CLR,,0.00,WeatherDisplay:10.37,2013-04-22 15:28:00,
2013-04-22 11:33:00,56.3,22.7,26.95,ESE,119,7.6,7.6,27,0.00,CLR,,0.00,WeatherDisplay:10.37,2013-04-22 15:33:00,
2013-04-22 11:38:00,56.7,23.0,26.95,East,97,9.2,9.2,27,0.00,CLR,,0.00,WeatherDisplay:10.37,2013-04-22 15:38:00,
2013-04-22 11:43:00,57.2,23.5,26.95,ENE,70,5.8,5.8,27,0.00,CLR,,0.00,WeatherDisplay:10.37,2013-04-22 15:43:00,
2013-04-22 11:48:00,57.7,23.9,26.95,East,93,9.2,9.2,27,0.00,CLR,,0.00,WeatherDisplay:10.37,2013-04-22 15:48:00,
2013-04-22 11:53:00,59.9,25.8,26.95,ESE,115,3.5,3.5,27,0.00,CLR,,0.00,WeatherDisplay:10.37,2013-04-22 15:53:00,
2013-04-22 11:58:00,61.3,26.1,26.95,East,100,8.1,8.1,26,0.00,CLR,,0.00,WeatherDisplay:10.37,2013-04-22 15:58:00,
2013-04-22 12:03:00,61.5,26.3,26.95,ESE,109,8.1,8.1,26,0.00,CLR,,0.00,WeatherDisplay:10.37,2013-04-22 16:03:00,
2013-04-22 12:08:00,62.4,27.0,26.95,ESE,104,5.8,5.8,26,0.00,CLR,,0.00,WeatherDisplay:10.37,2013-04-22 16:08:00,
2013-04-22 12:13:00,63.3,27.8,26.95,ESE,107,10.4,10.4,26,0.00,CLR,,0.00,WeatherDisplay:10.37,2013-04-22 16:13:00,
2013-04-22 12:18:00,63.0,27.5,26.95,ENE,75,5.8,5.8,26,0.00,CLR,,0.00,WeatherDisplay:10.37,2013-04-22 16:18:00,
2013-04-22 12:23:00,62.6,27.2,26.95,ESE,111,5.8,5.8,26,0.00,CLR,,0.00,WeatherDisplay:10.37,2013-04-22 16:23:00,
2013-04-22 12:28:00,62.4,27.0,26.95,SE,125,8.1,8.1,26,0.00,CLR,,0.00,WeatherDisplay:10.37,2013-04-22 16:28:00,
2013-04-22 12:33:00,61.7,26.4,26.95,ENE,63,5.8,5.8,26,0.00,CLR,,0.00,WeatherDisplay:10.37,2013-04-22 16:33:00,
2013-04-22 12:38:00,61.9,26.6,26.95,SE,137,9.2,9.2,26,0.00,CLR,,0.00,WeatherDisplay:10.37,2013-04-22 16:38:00,
2013-04-22 12:43:00,62.1,26.7,26.95,SSE,155,6.9,6.9,26,0.00,CLR,,0.00,WeatherDisplay:10.37,2013-04-22 16:43:00,
2013-04-22 12:48:00,63.0,27.5,26.95,East,94,9.2,9.2,26,0.00,CLR,,0.00,WeatherDisplay:10.37,2013-04-22 16:48:00,
2013-04-22 12:53:00,61.5,26.3,26.95,East,99,5.8,5.8,26,0.00,CLR,,0.00,WeatherDisplay:10.37,2013-04-22 16:53:00,
2013-04-22 12:58:00,62.4,27.0,26.95,East,85,5.8,5.8,26,0.00,CLR,,0.00,WeatherDisplay:10.37,2013-04-22 16:58:00,
2013-04-22 13:03:00,62.8,27.4,26.95,East,91,8.1,8.1,26,0.00,CLR,,0.00,WeatherDisplay:10.37,2013-04-22 17:03:00,
2013-04-22 13:08:00,62.8,27.4,26.95,ESE,112,5.8,5.8,26,0.00,CLR,,0.00,WeatherDisplay:10.37,2013-04-22 17:08:00,
2013-04-22 13:13:00,58.3,24.4,26.95,ESE,110,9.2,9.2,27,0.00,CLR,,0.00,WeatherDisplay:10.37,2013-04-22 17:13:00,
2013-04-22 13:18:00,55.6,22.1,26.95,ESE,110,8.1,8.1,27,0.00,CLR,,0.00,WeatherDisplay:10.37,2013-04-22 17:18:00,
2013-04-22 13:23:00,57.9,24.1,26.95,East,87,8.1,8.1,27,0.00,CLR,,0.00,WeatherDisplay:10.37,2013-04-22 17:23:00,
2013-04-22 13:28:00,59.7,25.6,26.95,East,96,5.8,5.8,27,0.00,CLR,,0.00,WeatherDisplay:10.37,2013-04-22 17:28:00,
2013-04-22 13:33:00,60.8,25.7,26.95,SE,143,5.8,5.8,26,0.00,CLR,,0.00,WeatherDisplay:10.37,2013-04-22 17:33:00,
2013-04-22 13:38:00,59.7,25.6,26.95,East,79,5.8,5.8,27,0.00,CLR,,0.00,WeatherDisplay:10.37,2013-04-22 17:38:00,
2013-04-22 13:43:00,60.1,26.0,26.95,East,79,5.8,5.8,27,0.00,CLR,,0.00,WeatherDisplay:10.37,2013-04-22 17:43:00,
2013-04-22 13:48:00,61.7,26.4,26.95,East,100,8.1,8.1,26,0.00,CLR,,0.00,WeatherDisplay:10.37,2013-04-22 17:48:00,
2013-04-22 13:53:00,60.6,26.4,26.95,SE,127,5.8,5.8,27,0.00,CLR,,0.00,WeatherDisplay:10.37,2013-04-22 17:53:00,
2013-04-22 13:58:00,59.7,25.6,26.95,ENE,71,3.5,3.6,27,0.00,CLR,,0.00,WeatherDisplay:10.37,2013-04-22 17:58:00,
2013-04-22 14:03:00,58.3,24.4,26.95,SE,138,10.4,10.4,27,0.00,CLR,,0.00,WeatherDisplay:10.37,2013-04-22 18:03:00,
2013-04-22 14:08:00,59.4,25.3,26.95,East,99,6.9,6.9,27,0.00,CLR,,0.00,WeatherDisplay:10.37,2013-04-22 18:08:00,
2013-04-22 14:13:00,60.8,25.7,26.95,East,99,5.8,5.8,26,0.00,CLR,,0.00,WeatherDisplay:10.37,2013-04-22 18:13:00,
2013-04-22 14:18:00,62.2,26.9,26.95,ESE,107,5.8,5.8,26,0.00,CLR,,0.00,WeatherDisplay:10.37,2013-04-22 18:18:00,
2013-04-22 14:23:00,60.1,26.0,26.95,ESE,102,5.8,5.8,27,0.00,CLR,,0.00,WeatherDisplay:10.37,2013-04-22 18:23:00,
2013-04-22 14:28:00,60.3,26.1,26.95,ESE,109,5.8,5.8,27,0.00,CLR,,0.00,WeatherDisplay:10.37,2013-04-22 18:28:00,
2013-04-22 14:33:00,57.4,23.6,26.95,NE,53,5.8,5.8,27,0.00,CLR,,0.00,WeatherDisplay:10.37,2013-04-22 18:33:00,
2013-04-22 14:38:00,58.5,24.6,26.95,ESE,113,5.8,5.8,27,0.00,CLR,,0.00,WeatherDisplay:10.37,2013-04-22 18:38:00,
2013-04-22 14:43:00,59.4,25.3,26.95,ENE,69,5.8,5.8,27,0.00,CLR,,0.00,WeatherDisplay:10.37,2013-04-22 18:43:00,
2013-04-22 14:48:00,57.2,23.5,26.95,NE,47,5.8,5.8,27,0.00,CLR,,0.00,WeatherDisplay:10.37,2013-04-22 18:48:00,
2013-04-22 14:53:00,55.8,22.2,26.95,SSE,148,5.8,5.8,27,0.00,CLR,,0.00,WeatherDisplay:10.37,2013-04-22 18:53:00,
2013-04-22 14:58:00,52.3,20.2,26.95,East,81,8.1,8.1,28,0.00,CLR,,0.00,WeatherDisplay:10.37,2013-04-22 18:58:00,
2013-04-22 15:03:00,51.6,17.8,26.95,South,180,8.1,8.1,26,0.00,CLR,,0.00,WeatherDisplay:10.37,2013-04-22 19:03:00,
2013-04-22 15:08:00,50.5,16.9,26.95,East,87,5.8,5.8,26,0.00,CLR,,0.00,WeatherDisplay:10.37,2013-04-22 19:08:00,
2013-04-22 15:13:00,50.7,17.0,26.95,East,85,5.8,5.8,26,0.00,CLR,,0.00,WeatherDisplay:10.37,2013-04-22 19:13:00,
2013-04-22 15:18:00,50.5,16.9,26.95,East,100,3.5,3.6,26,0.00,CLR,,0.00,WeatherDisplay:10.37,2013-04-22 19:18:00,
2013-04-22 15:23:00,51.1,17.3,26.95,East,79,5.8,5.8,26,0.00,CLR,,0.00,WeatherDisplay:10.37,2013-04-22 19:23:00,
2013-04-22 15:28:00,51.1,17.3,26.95,East,82,4.6,4.6,26,0.00,CLR,,0.00,WeatherDisplay:10.37,2013-04-22 19:28:00,
2013-04-22 15:33:00,50.5,16.9,26.95,East,101,4.0,4.0,26,0.00,CLR,,0.00,WeatherDisplay:10.37,2013-04-22 19:33:00,
2013-04-22 15:38:00,50.2,16.6,26.95,ENE,66,5.8,5.8,26,0.00,CLR,,0.00,WeatherDisplay:10.37,2013-04-22 19:38:00,
2013-04-22 15:43:00,50.0,16.4,26.95,ESE,106,5.8,5.8,26,0.00,CLR,,0.00,WeatherDisplay:10.37,2013-04-22 19:43:00,
2013-04-22 15:48:00,49.8,16.3,26.95,ESE,111,8.1,8.1,26,0.00,CLR,,0.00,WeatherDisplay:10.37,2013-04-22 19:48:00,
2013-04-22 15:53:00,49.6,16.1,26.95,SE,129,8.1,8.1,26,0.00,CLR,,0.00,WeatherDisplay:10.37,2013-04-22 19:53:00,
2013-04-22 15:58:00,49.5,15.9,26.95,SSW,204,9.2,9.2,26,0.00,CLR,,0.00,WeatherDisplay:10.37,2013-04-22 19:58:00,
2013-04-22 16:03:00,49.5,15.9,26.95,ENE,74,5.8,5.8,26,0.00,CLR,,0.00,WeatherDisplay:10.37,2013-04-22 20:03:00,
2013-04-22 16:08:00,49.6,16.1,26.95,East,85,5.8,5.8,26,0.00,CLR,,0.00,WeatherDisplay:10.37,2013-04-22 20:08:00,
2013-04-22 16:13:00,49.8,16.3,26.95,East,91,4.6,4.6,26,0.00,CLR,,0.00,WeatherDisplay:10.37,2013-04-22 20:13:00,
2013-04-22 16:18:00,49.5,15.9,26.95,East,99,5.8,5.8,26,0.00,CLR,,0.00,WeatherDisplay:10.37,2013-04-22 20:18:00,
2013-04-22 16:23:00,49.3,15.8,26.95,East,91,6.9,6.9,26,0.00,CLR,,0.00,WeatherDisplay:10.37,2013-04-22 20:23:00,
2013-04-22 16:28:00,49.3,15.8,26.95,East,100,8.1,8.1,26,0.00,CLR,,0.00,WeatherDisplay:10.37,2013-04-22 20:28:00,
2013-04-22 16:33:00,50.5,16.9,26.95,East,90,5.8,5.8,26,0.00,CLR,,0.00,WeatherDisplay:10.37,2013-04-22 20:33:00,
2013-04-22 16:38:00,50.2,16.6,26.95,East,99,6.9,6.9,26,0.00,CLR,,0.00,WeatherDisplay:10.37,2013-04-22 20:38:00,
2013-04-22 16:43:00,49.3,15.8,26.95,SE,128,5.8,5.8,26,0.00,CLR,,0.00,WeatherDisplay:10.37,2013-04-22 20:43:00,
2013-04-22 16:48:00,48.0,15.6,26.95,ESE,106,5.8,6.3,27,0.00,CLR,,0.00,WeatherDisplay:10.37,2013-04-22 20:48:00,
2013-04-22 16:53:00,47.8,15.4,26.95,SSE,147,5.8,5.8,27,0.00,CLR,,0.00,WeatherDisplay:10.37,2013-04-22 20:53:00,
2013-04-22 16:58:00,47.7,15.3,26.95,SE,124,6.9,6.9,27,0.00,CLR,,0.00,WeatherDisplay:10.37,2013-04-22 20:58:00,
2013-04-22 17:03:00,47.8,15.4,26.95,East,96,5.8,5.8,27,0.00,CLR,,0.00,WeatherDisplay:10.37,2013-04-22 21:03:00,
2013-04-22 17:08:00,47.3,15.0,26.95,East,97,8.1,8.1,27,0.00,CLR,,0.00,WeatherDisplay:10.37,2013-04-22 21:08:00,
2013-04-22 17:13:00,47.3,15.0,26.95,East,93,5.8,5.8,27,0.00,CLR,,0.00,WeatherDisplay:10.37,2013-04-22 21:13:00,
2013-04-22 17:18:00,47.5,16.8,26.95,East,90,5.8,5.8,29,0.00,CLR,,0.00,WeatherDisplay:10.37,2013-04-22 21:18:00,
2013-04-22 17:23:00,47.3,15.0,26.95,ESE,102,5.4,5.4,27,0.00,CLR,,0.00,WeatherDisplay:10.37,2013-04-22 21:23:00,
2013-04-22 17:28:00,47.3,15.0,26.95,East,96,5.8,5.8,27,0.00,CLR,,0.00,WeatherDisplay:10.37,2013-04-22 21:28:00,
2013-04-22 17:33:00,47.1,14.8,26.95,ESE,114,4.0,4.0,27,0.00,CLR,,0.00,WeatherDisplay:10.37,2013-04-22 21:33:00,
2013-04-22 17:38:00,46.6,14.3,26.95,ESE,102,8.1,8.1,27,0.00,CLR,,0.00,WeatherDisplay:10.37,2013-04-22 21:38:00,
2013-04-22 17:43:00,45.5,13.4,26.95,ESE,108,6.9,6.9,27,0.00,CLR,,0.00,WeatherDisplay:10.37,2013-04-22 21:43:00,
2013-04-22 17:48:00,45.3,13.2,26.95,East,97,5.8,5.8,27,0.00,CLR,,0.00,WeatherDisplay:10.37,2013-04-22 21:48:00,
2013-04-22 17:53:00,44.6,12.6,26.95,ESE,107,5.8,5.8,27,0.00,CLR,,0.00,WeatherDisplay:10.37,2013-04-22 21:53:00,
2013-04-22 17:58:00,44.4,13.3,26.95,ESE,108,5.8,5.8,28,0.00,CLR,,0.00,WeatherDisplay:10.37,2013-04-22 21:58:00,
2013-04-22 18:03:00,45.3,13.2,26.95,East,98,3.5,3.5,27,0.00,CLR,,0.00,WeatherDisplay:10.37,2013-04-22 22:03:00,
2013-04-22 18:08:00,45.9,13.7,26.95,East,79,5.8,5.8,27,0.00,CLR,,0.00,WeatherDisplay:10.37,2013-04-22 22:08:00,
2013-04-22 18:13:00,45.3,13.2,26.95,East,99,5.8,5.8,27,0.00,CLR,,0.00,WeatherDisplay:10.37,2013-04-22 22:13:00,
2013-04-22 18:18:00,44.4,13.3,26.95,ESE,110,5.4,5.4,28,0.00,CLR,,0.00,WeatherDisplay:10.37,2013-04-22 22:18:00,
2013-04-22 18:23:00,43.7,12.7,26.95,East,85,5.8,5.8,28,0.00,CLR,,0.00,WeatherDisplay:10.37,2013-04-22 22:23:00,
2013-04-22 18:28:00,43.2,12.2,26.95,ESE,111,4.0,4.0,28,0.00,CLR,,0.00,WeatherDisplay:10.37,2013-04-22 22:28:00,
2013-04-22 18:33:00,42.8,11.9,26.95,ESE,110,4.6,4.6,28,0.00,CLR,,0.00,WeatherDisplay:10.37,2013-04-22 22:33:00,
2013-04-22 18:38:00,42.8,11.9,26.95,ESE,104,5.8,5.8,28,0.00,CLR,,0.00,WeatherDisplay:10.37,2013-04-22 22:38:00,
2013-04-22 18:43:00,43.0,12.0,26.95,ESE,103,6.9,6.9,28,0.00,CLR,,0.00,WeatherDisplay:10.37,2013-04-22 22:43:00,
2013-04-22 18:48:00,43.2,12.2,26.95,ESE,104,8.1,8.1,28,0.00,CLR,,0.00,WeatherDisplay:10.37,2013-04-22 22:48:00,
2013-04-22 18:53:00,43.3,12.4,26.95,East,98,6.9,6.9,28,0.00,CLR,,0.00,WeatherDisplay:10.37,2013-04-22 22:53:00,
2013-04-22 18:58:00,43.3,12.4,26.95,East,89,5.8,5.8,28,0.00,CLR,,0.00,WeatherDisplay:10.37,2013-04-22 22:58:00,
2013-04-22 19:03:00,42.6,11.7,26.95,East,100,5.8,5.8,28,0.00,CLR,,0.00,WeatherDisplay:10.37,2013-04-22 23:03:00,
2013-04-22 19:08:00,42.3,11.4,26.95,ESE,102,5.8,5.8,28,0.00,CLR,,0.00,WeatherDisplay:10.37,2013-04-22 23:08:00,
2013-04-22 19:13:00,42.1,11.3,26.95,East,96,4.6,4.6,28,0.00,CLR,,0.00,WeatherDisplay:10.37,2013-04-22 23:13:00,
2013-04-22 19:18:00,42.1,11.3,26.95,East,94,5.8,5.8,28,0.00,CLR,,0.00,WeatherDisplay:10.37,2013-04-22 23:18:00,
2013-04-22 19:23:00,41.7,13.3,26.95,ESE,104,5.8,5.8,31,0.00,CLR,,0.00,WeatherDisplay:10.37,2013-04-22 23:23:00,
2013-04-22 19:28:00,41.5,10.8,26.95,East,98,5.8,5.8,28,0.00,CLR,,0.00,WeatherDisplay:10.37,2013-04-22 23:28:00,
2013-04-22 19:33:00,41.4,10.6,26.95,East,101,5.8,5.8,28,0.00,CLR,,0.00,WeatherDisplay:10.37,2013-04-22 23:33:00,
2013-04-22 19:38:00,41.2,10.5,26.95,East,91,3.5,3.5,28,0.00,CLR,,0.00,WeatherDisplay:10.37,2013-04-22 23:38:00,
2013-04-22 19:43:00,41.0,10.3,26.95,East,84,3.5,3.5,28,0.00,CLR,,0.00,WeatherDisplay:10.37,2013-04-22 23:43:00,
2013-04-22 19:48:00,40.8,10.2,26.95,East,100,3.5,3.5,28,0.00,CLR,,0.00,WeatherDisplay:10.37,2013-04-22 23:48:00,
2013-04-22 19:53:00,40.5,9.9,26.95,ENE,69,5.8,5.8,28,0.00,CLR,,0.00,WeatherDisplay:10.37,2013-04-22 23:53:00,
2013-04-22 19:58:00,40.3,9.7,26.95,East,82,3.5,3.6,28,0.00,CLR,,0.00,WeatherDisplay:10.37,2013-04-22 23:58:00,
2013-04-22 20:03:00,39.9,9.4,26.95,East,99,3.5,3.5,28,0.00,CLR,,0.00,WeatherDisplay:10.37,2013-04-23 00:03:00,
2013-04-22 20:08:00,39.7,9.2,26.95,East,101,2.3,2.3,28,0.00,CLR,,0.00,WeatherDisplay:10.37,2013-04-23 00:08:00,
2013-04-22 20:13:00,39.6,9.1,26.95,ENE,77,2.3,2.3,28,0.00,CLR,,0.00,WeatherDisplay:10.37,2013-04-23 00:13:00,
2013-04-22 20:18:00,39.7,9.2,26.95,East,87,4.0,4.0,28,0.00,CLR,,0.00,WeatherDisplay:10.37,2013-04-23 00:18:00,
2013-04-22 20:23:00,39.7,9.2,26.95,East,80,3.5,3.5,28,0.00,CLR,,0.00,WeatherDisplay:10.37,2013-04-23 00:23:00,
2013-04-22 20:28:00,39.6,9.1,26.95,East,83,5.8,5.8,28,0.00,CLR,,0.00,WeatherDisplay:10.37,2013-04-23 00:28:00,
2013-04-22 20:33:00,39.6,9.1,26.95,East,100,4.6,4.6,28,0.00,CLR,,0.00,WeatherDisplay:10.37,2013-04-23 00:33:00,
2013-04-22 20:38:00,39.6,9.1,26.95,East,88,3.5,3.5,28,0.00,CLR,,0.00,WeatherDisplay:10.37,2013-04-23 00:38:00,
2013-04-22 20:43:00,39.4,8.9,26.95,East,79,2.3,0.0,28,0.00,CLR,,0.00,WeatherDisplay:10.37,2013-04-23 00:43:00,
2013-04-22 20:48:00,39.4,8.9,26.95,East,99,2.3,2.3,28,0.00,CLR,,0.00,WeatherDisplay:10.37,2013-04-23 00:48:00,
2013-04-22 20:53:00,39.2,8.8,26.95,East,87,2.3,2.3,28,0.00,CLR,,0.00,WeatherDisplay:10.37,2013-04-23 00:53:00,
2013-04-22 20:58:00,38.8,9.2,26.95,East,83,3.5,0.0,29,0.00,CLR,,0.00,WeatherDisplay:10.37,2013-04-23 00:58:00,
2013-04-22 21:03:00,38.7,9.1,26.95,East,83,0.0,0.0,29,0.00,CLR,,0.00,WeatherDisplay:10.37,2013-04-23 01:03:00,
2013-04-22 21:08:00,38.5,8.9,26.95,ESE,106,0.0,0.0,29,0.00,CLR,,0.00,WeatherDisplay:10.37,2013-04-23 01:08:00,
2013-04-22 21:13:00,38.1,10.1,26.95,ESE,106,0.0,0.0,31,0.00,CLR,,0.00,WeatherDisplay:10.37,2013-04-23 01:13:00,
2013-04-22 21:18:00,37.9,9.9,26.95,ENE,77,2.3,0.0,31,0.00,CLR,,0.00,WeatherDisplay:10.37,2013-04-23 01:18:00,
2013-04-22 21:23:00,38.1,10.1,26.95,ESE,108,2.3,0.0,31,0.00,CLR,,0.00,WeatherDisplay:10.37,2013-04-23 01:23:00,
2013-04-22 21:28:00,37.9,9.9,26.95,ESE,102,0.0,0.0,31,0.00,CLR,,0.00,WeatherDisplay:10.37,2013-04-23 01:28:00,
2013-04-22 21:33:00,37.8,9.8,26.95,ENE,68,0.0,0.0,31,0.00,CLR,,0.00,WeatherDisplay:10.37,2013-04-23 01:33:00,
2013-04-22 21:38:00,37.9,9.9,26.95,West,273,0.0,0.0,31,0.00,CLR,,0.00,WeatherDisplay:10.37,2013-04-23 01:38:00,
2013-04-22 21:43:00,37.9,9.9,26.95,West,273,0.0,0.0,31,0.00,CLR,,0.00,WeatherDisplay:10.37,2013-04-23 01:43:00,
2013-04-22 21:48:00,37.8,11.9,26.95,West,273,2.3,2.3,34,0.00,CLR,,0.00,WeatherDisplay:10.37,2013-04-23 01:48:00,
2013-04-22 21:53:00,37.6,9.6,26.95,West,272,2.3,0.0,31,0.00,CLR,,0.00,WeatherDisplay:10.37,2013-04-23 01:53:00,
2013-04-22 21:58:00,37.6,9.6,26.95,West,273,0.0,0.0,31,0.00,CLR,,0.00,WeatherDisplay:10.37,2013-04-23 01:58:00,
2013-04-22 22:03:00,37.6,9.6,26.95,SSE,152,3.5,0.0,31,0.00,CLR,,0.00,WeatherDisplay:10.37,2013-04-23 02:03:00,
2013-04-22 22:08:00,37.4,9.5,26.95,East,94,0.0,0.0,31,0.00,CLR,,0.00,WeatherDisplay:10.37,2013-04-23 02:08:00,
2013-04-22 22:13:00,37.4,9.5,26.95,East,93,0.0,0.0,31,0.00,CLR,,0.00,WeatherDisplay:10.37,2013-04-23 02:13:00,
2013-04-22 22:18:00,37.2,10.0,26.95,East,98,0.0,0.0,32,0.00,CLR,,0.00,WeatherDisplay:10.37,2013-04-23 02:18:00,
2013-04-22 22:23:00,36.9,9.7,26.95,East,93,3.5,0.0,32,0.00,CLR,,0.00,WeatherDisplay:10.37,2013-04-23 02:23:00,
2013-04-22 22:28:00,36.9,9.7,26.95,ENE,67,0.0,0.0,32,0.00,CLR,,0.00,WeatherDisplay:10.37,2013-04-23 02:28:00,
2013-04-22 22:33:00,36.9,9.7,26.95,ENE,67,0.0,0.0,32,0.00,CLR,,0.00,WeatherDisplay:10.37,2013-04-23 02:33:00,
2013-04-22 22:38:00,36.9,9.7,26.95,ENE,73,0.0,0.0,32,0.00,CLR,,0.00,WeatherDisplay:10.37,2013-04-23 02:38:00,
2013-04-22 22:43:00,36.9,9.7,26.95,ENE,73,0.0,0.0,32,0.00,CLR,,0.00,WeatherDisplay:10.37,2013-04-23 02:43:00,
2013-04-22 22:48:00,36.7,9.5,26.95,ENE,73,0.0,0.0,32,0.00,CLR,,0.00,WeatherDisplay:10.37,2013-04-23 02:48:00,
2013-04-22 22:53:00,36.3,9.2,26.95,ENE,73,0.0,0.0,32,0.00,CLR,,0.00,WeatherDisplay:10.37,2013-04-23 02:53:00,
2013-04-22 22:58:00,36.3,9.2,26.95,ENE,73,0.0,0.0,32,0.00,CLR,,0.00,WeatherDisplay:10.37,2013-04-23 02:58:00,
2013-04-22 23:03:00,36.3,9.2,26.95,ENE,73,0.0,0.0,32,0.00,CLR,,0.00,WeatherDisplay:10.37,2013-04-23 03:03:00,
2013-04-22 23:08:00,36.3,9.2,26.95,ENE,73,0.0,0.0,32,0.00,CLR,,0.00,WeatherDisplay:10.37,2013-04-23 03:08:00,
2013-04-22 23:13:00,36.1,9.1,26.95,ENE,73,0.0,0.0,32,0.00,CLR,,0.00,WeatherDisplay:10.37,2013-04-23 03:13:00,
2013-04-22 23:18:00,36.1,9.1,26.95,ENE,73,0.0,0.0,32,0.00,CLR,,0.00,WeatherDisplay:10.37,2013-04-23 03:18:00,
2013-04-22 23:23:00,36.0,8.9,26.95,ENE,73,0.0,0.0,32,0.00,CLR,,0.00,WeatherDisplay:10.37,2013-04-23 03:23:00,
2013-04-22 23:28:00,35.8,8.8,26.95,ENE,73,0.0,0.0,32,0.00,CLR,,0.00,WeatherDisplay:10.37,2013-04-23 03:28:00,
2013-04-22 23:33:00,35.6,8.6,26.95,ENE,73,0.0,0.0,32,0.00,CLR,,0.00,WeatherDisplay:10.37,2013-04-23 03:33:00,
2013-04-22 23:38:00,35.6,8.6,26.95,ENE,73,0.0,0.0,32,0.00,CLR,,0.00,WeatherDisplay:10.37,2013-04-23 03:38:00,
2013-04-22 23:43:00,35.6,8.6,26.95,ENE,73,0.0,0.0,32,0.00,CLR,,0.00,WeatherDisplay:10.37,2013-04-23 03:43:00,
2013-04-22 23:48:00,35.2,8.3,26.95,ENE,73,0.0,0.0,32,0.00,CLR,,0.00,WeatherDisplay:10.37,2013-04-23 03:48:00,
2013-04-22 23:53:00,35.1,8.1,26.95,ENE,73,0.0,0.0,32,0.00,CLR,,0.00,WeatherDisplay:10.37,2013-04-23 03:53:00,
2013-04-22 23:58:00,34.9,8.0,26.95,ENE,73,0.0,0.0,32,0.00,CLR,,0.00,WeatherDisplay:10.37,2013-04-23 03:58:00,